When you browse on this site, cookies collect data to enhance your experience and personalize the content and advertising you see.
Visit our Privacy Policy to learn more. By continuing to use the site, you agree to this use of cookies and data.
  • In Hungary
  • List of Countries
  • For 7 days
  • Water Temperature
  • Satellite Maps
  • Weather Map
  • News
  • Weather Widgets
  • user-avatar
    Login

    Hourly Weather Kyzylorda

    Today, 17 January, Thursday

    Time Temperature Precipitation Wind Pressure Humidity
    00:00 -7°C° 0 mm 4 mps 755 mmHg 90%
    01:00 -7°C° 0 mm 4 mps 755 mmHg 90%
    02:00 -7°C° 0 mm 4 mps 755 mmHg 89%
    03:00 -7°C° 0 mm 4 mps 755 mmHg 88%
    04:00 -4°C° 0 mm 3 mps 754 mmHg 87%
    05:00 -4°C° 0 mm 4 mps 754 mmHg 87%
    06:00 -4°C° 0 mm 4 mps 754 mmHg 86%
    07:00 -4°C° 0 mm 4 mps 753 mmHg 86%
    08:00 -4°C° 0 mm 5 mps 753 mmHg 88%
    09:00 -2°C° 0 mm 5 mps 753 mmHg 90%
    10:00 0°C° 0 mm 5 mps 753 mmHg 93%
    11:00 0°C° 0 mm 5 mps 752 mmHg 94%
    12:00 -1°C° 0 mm 6 mps 752 mmHg 95%
    13:00 +1°C° 0 mm 6 mps 751 mmHg 96%
    14:00 +1°C° 0 mm 6 mps 751 mmHg 91%
    15:00 +1°C° 0 mm 6 mps 750 mmHg 86%
    16:00 +1°C° 0 mm 6 mps 750 mmHg 81%
    17:00 +1°C° 0 mm 6 mps 749 mmHg 79%
    18:00 +1°C° 0 mm 6 mps 749 mmHg 77%
    19:00 -1°C° 0 mm 6 mps 749 mmHg 75%
    20:00 -1°C° 0 mm 6 mps 748 mmHg 74%
    21:00 -1°C° 0 mm 6 mps 748 mmHg 73%
    22:00 -1°C° 0 mm 6 mps 747 mmHg 72%
    23:00 -1°C° 0 mm 6 mps 747 mmHg 70%

    Tomorrow, 18 January, Friday

    Time Temperature Precipitation Wind Pressure Humidity
    00:00 -1°C° 0 mm 6 mps 746 mmHg 69%
    01:00 -1°C° 0 mm 6 mps 746 mmHg 68%
    02:00 -1°C° 0 mm 6 mps 745 mmHg 67%
    03:00 -1°C° 0 mm 6 mps 745 mmHg 67%
    04:00 -1°C° 0 mm 6 mps 744 mmHg 66%
    05:00 -1°C° 0 mm 6 mps 744 mmHg 66%
    06:00 -1°C° 0 mm 6 mps 744 mmHg 66%
    07:00 -1°C° 0 mm 6 mps 743 mmHg 65%
    08:00 -1°C° 0 mm 6 mps 743 mmHg 66%
    09:00 +1°C° 0 mm 6 mps 743 mmHg 67%
    10:00 +1°C° 0 mm 6 mps 743 mmHg 67%
    11:00 +1°C° 0.2 mm 6 mps 743 mmHg 69%
    12:00 +1°C° 0.2 mm 6 mps 742 mmHg 71%
    13:00 +2°C° 0.2 mm 6 mps 742 mmHg 72%
    14:00 +2°C° 0.6 mm 6 mps 742 mmHg 74%
    15:00 +2°C° 0.6 mm 7 mps 742 mmHg 76%
    16:00 +1°C° 0.6 mm 8 mps 742 mmHg 78%
    17:00 +2°C° 0 mm 7 mps 742 mmHg 80%
    18:00 +2°C° 0 mm 7 mps 743 mmHg 81%
    19:00 +2°C° 0 mm 6 mps 743 mmHg 83%
    20:00 +2°C° 0 mm 6 mps 743 mmHg 84%
    21:00 +2°C° 0 mm 7 mps 744 mmHg 84%
    22:00 +2°C° 0 mm 7 mps 745 mmHg 85%
    23:00 +2°C° 0 mm 7 mps 745 mmHg 84%

    Day after tomorrow, 19 January, Saturday

    Time Temperature Precipitation Wind Pressure Humidity
    00:00 0°C° 0 mm 7 mps 746 mmHg 82%
    01:00 0°C° 0 mm 7 mps 746 mmHg 81%
    02:00 -1°C° 0 mm 7 mps 747 mmHg 82%
    03:00 -1°C° 0 mm 6 mps 747 mmHg 83%
    04:00 -1°C° 0 mm 6 mps 748 mmHg 84%
    05:00 -2°C° 0 mm 6 mps 748 mmHg 84%
    06:00 -2°C° 0 mm 6 mps 749 mmHg 84%
    07:00 -2°C° 0 mm 6 mps 750 mmHg 84%
    08:00 -2°C° 0 mm 6 mps 750 mmHg 83%
    09:00 -1°C° 0 mm 7 mps 750 mmHg 81%
    10:00 -1°C° 0 mm 8 mps 751 mmHg 79%
    11:00 0°C° 0 mm 8 mps 751 mmHg 76%
    12:00 0°C° 0 mm 7 mps 750 mmHg 73%
    13:00 +2°C° 0 mm 7 mps 750 mmHg 70%
    14:00 0°C° 0 mm 7 mps 750 mmHg 69%
    15:00 +1°C° 0 mm 6 mps 750 mmHg 69%
    16:00 +1°C° 0 mm 5 mps 750 mmHg 69%
    17:00 0°C° 0 mm 5 mps 750 mmHg 69%
    18:00 0°C° 0 mm 5 mps 751 mmHg 69%
    19:00 -2°C° 0 mm 6 mps 751 mmHg 69%
    20:00 -2°C° 0 mm 6 mps 751 mmHg 69%
    21:00 -2°C° 0 mm 6 mps 750 mmHg 69%
    22:00 -2°C° 0 mm 6 mps 750 mmHg 69%
    23:00 -3°C° 0 mm 6 mps 750 mmHg 70%

    20 January, Sunday

    Time Temperature Precipitation Wind Pressure Humidity
    00:00 -3°C° 0 mm 6 mps 750 mmHg 71%
    01:00 -3°C° 0 mm 6 mps 750 mmHg 72%
    02:00 -3°C° 0 mm 6 mps 750 mmHg 73%
    03:00 -3°C° 0 mm 6 mps 750 mmHg 74%
    04:00 -4°C° 0 mm 6 mps 750 mmHg 75%
    05:00 -4°C° 0 mm 6 mps 750 mmHg 76%
    06:00 -4°C° 0 mm 6 mps 750 mmHg 77%
    07:00 -4°C° 0 mm 6 mps 750 mmHg 78%
    08:00 -3°C° 0 mm 6 mps 750 mmHg 77%
    09:00 -3°C° 0 mm 7 mps 751 mmHg 76%
    10:00 -2°C° 0 mm 8 mps 751 mmHg 74%
    11:00 -2°C° 0 mm 8 mps 751 mmHg 75%
    12:00 -2°C° 0 mm 8 mps 751 mmHg 75%
    13:00 -2°C° 0 mm 8 mps 750 mmHg 75%
    14:00 -2°C° 0.1 mm 7 mps 751 mmHg 78%
    15:00 -2°C° 0.1 mm 7 mps 751 mmHg 80%
    16:00 -3°C° 0.1 mm 7 mps 751 mmHg 82%
    17:00 -3°C° 0.1 mm 7 mps 751 mmHg 84%
    18:00 -3°C° 0.1 mm 7 mps 752 mmHg 85%
    19:00 -3°C° 0.1 mm 7 mps 753 mmHg 87%
    20:00 -3°C° 0 mm 7 mps 753 mmHg 87%
    21:00 -3°C° 0 mm 7 mps 754 mmHg 88%
    22:00 -3°C° 0 mm 7 mps 754 mmHg 88%
    23:00 -4°C° 0 mm 7 mps 755 mmHg 88%

    21 January, Monday

    Time Temperature Precipitation Wind Pressure Humidity
    00:00 -4°C° 0 mm 7 mps 755 mmHg 87%
    01:00 -4°C° 0 mm 7 mps 755 mmHg 86%
    02:00 -4°C° 0 mm 6 mps 756 mmHg 86%
    03:00 -4°C° 0 mm 6 mps 756 mmHg 85%
    04:00 -4°C° 0 mm 5 mps 757 mmHg 84%
    05:00 -4°C° 0 mm 5 mps 757 mmHg 83%
    06:00 -3°C° 0 mm 4 mps 758 mmHg 83%
    07:00 -3°C° 0 mm 4 mps 758 mmHg 82%
    08:00 -3°C° 0 mm 4 mps 759 mmHg 80%
    09:00 -2°C° 0 mm 3 mps 759 mmHg 79%
    10:00 -2°C° 0 mm 2 mps 760 mmHg 77%
    11:00 -2°C° 0 mm 2 mps 760 mmHg 76%
    12:00 -2°C° 0 mm 2 mps 760 mmHg 75%
    13:00 -1°C° 0 mm 2 mps 760 mmHg 74%
    14:00 -1°C° 0 mm 2 mps 760 mmHg 74%
    15:00 +1°C° 0 mm 1 mps 760 mmHg 75%
    16:00 0°C° 0 mm 1 mps 760 mmHg 76%
    17:00 0°C° 0 mm 1 mps 760 mmHg 78%
    18:00 0°C° 0 mm 1 mps 760 mmHg 80%
    19:00 0°C° 0 mm 1 mps 761 mmHg 81%
    20:00 -1°C° 0 mm 1 mps 761 mmHg 82%
    21:00 -3°C° 0 mm 2 mps 760 mmHg 82%
    22:00 -3°C° 0 mm 2 mps 760 mmHg 82%
    23:00 -3°C° 0 mm 2 mps 760 mmHg 83%

    22 January, Tuesday

    Time Temperature Precipitation Wind Pressure Humidity
    00:00 -3°C° 0 mm 2 mps 760 mmHg 84%
    01:00 -3°C° 0 mm 2 mps 760 mmHg 85%
    02:00 -4°C° 0 mm 3 mps 760 mmHg 85%
    03:00 -4°C° 0 mm 3 mps 760 mmHg 86%
    04:00 -4°C° 0 mm 3 mps 760 mmHg 87%
    05:00 -4°C° 0 mm 3 mps 760 mmHg 87%
    06:00 -4°C° 0 mm 4 mps 759 mmHg 88%
    07:00 -4°C° 0 mm 4 mps 759 mmHg 88%
    08:00 -4°C° 0 mm 4 mps 759 mmHg 85%
    09:00 -4°C° 0 mm 5 mps 759 mmHg 82%
    10:00 -2°C° 0 mm 5 mps 759 mmHg 79%
    11:00 -2°C° 0 mm 5 mps 759 mmHg 77%
    12:00 -1°C° 0 mm 5 mps 758 mmHg 74%
    13:00 0°C° 0 mm 5 mps 758 mmHg 71%
    14:00 -1°C° 0 mm 5 mps 757 mmHg 73%
    15:00 -1°C° 0 mm 5 mps 757 mmHg 75%
    16:00 -1°C° 0 mm 5 mps 757 mmHg 77%
    17:00 -2°C° 0 mm 5 mps 757 mmHg 79%
    18:00 -4°C° 0 mm 5 mps 757 mmHg 80%
    19:00 -4°C° 0 mm 5 mps 757 mmHg 82%
    20:00 -4°C° 0 mm 5 mps 757 mmHg 82%
    21:00 -4°C° 0 mm 5 mps 757 mmHg 83%
    22:00 -4°C° 0 mm 4 mps 757 mmHg 83%
    23:00 -4°C° 0 mm 4 mps 757 mmHg 83%
    Show more